Powrót do katalogu

THORAD AGENA D DEB

AktywnyPO
NORAD 42503·DEBRIS·🇺🇸 United States

Wystrzelony Apr 8, 1970 z Vandenberg Space Force Base

Loading…

Następne Przeloty (najbliższe 24 godziny)

TLE

Starzejące sięSource: Space-Track

Epoka: Sep 8, 2026, 06:51 UTC

1 42503U 70025RH  26251.28564003  .00000668  00000-0  61160-3 0  9999
2 42503  99.9418 275.0617 0014623 271.4704  88.4775 13.87115454645884

Śledź THORAD AGENA D DEB w czasie rzeczywistym z AllMySat

Download on the App Store